timestamp,surface_pressure_avg,surface_temp_avg,battery_voltage,lat,long
2021-09-22 00:09:01+00:00,339.3613,14.3,12.73,47.84626,-54.09684
2021-09-22 00:19:01+00:00,337.1063,14.36,12.73,47.84626,-54.09684
2021-09-22 00:29:01+00:00,333.3397,14.39,12.73,47.84626,-54.09684
2021-09-22 00:39:01+00:00,334.343,14.4,12.73,47.84626,-54.09684
2021-09-22 00:49:01+00:00,335.48800000000006,14.4,12.73,47.84626,-54.09684
2021-09-22 00:59:01+00:00,332.7863,14.4,12.73,47.84626,-54.09684
2021-09-22 01:09:01+00:00,325.0646,14.4,12.73,47.84626,-54.09684
2021-09-22 01:19:01+00:00,322.7679,14.4,12.73,47.84626,-54.09684
2021-09-22 01:29:01+00:00,323.923,14.4,12.73,47.84626,-54.09684
2021-09-22 01:39:01+00:00,318.5363,14.4,12.73,47.84626,-54.09684
2021-09-22 01:49:01+00:00,308.4914,14.39,12.73,47.84626,-54.09684
2021-09-22 01:59:01+00:00,303.6814,14.37,12.73,47.84626,-54.09684
2021-09-22 02:09:01+00:00,301.83299999999997,14.37,12.73,47.84626,-54.09684
2021-09-22 02:19:00+00:00,290.6914,14.34,12.73,47.84626,-54.09684
2021-09-22 02:29:00+00:00,283.2414,14.32,12.73,47.84626,-54.09684
2021-09-22 02:39:00+00:00,281.1381,14.31,12.73,47.84626,-54.09684
2021-09-22 02:49:00+00:00,275.3231,14.3,12.73,47.84626,-54.09684
2021-09-22 02:59:00+00:00,265.2264,14.3,12.73,47.84626,-54.09684
2021-09-22 03:09:00+00:00,260.5164,14.3,12.73,47.84626,-54.09684
2021-09-22 03:19:01+00:00,255.3897,14.31,12.73,47.84626,-54.09684
2021-09-22 03:29:01+00:00,246.4898,14.35,12.73,47.84626,-54.09684
2021-09-22 03:39:01+00:00,235.6714,14.37,12.73,47.84626,-54.09684
2021-09-22 03:49:01+00:00,225.0064,14.36,12.73,47.84626,-54.09684
2021-09-22 03:59:01+00:00,218.4031,14.35,12.73,47.84626,-54.09684
2021-09-22 04:09:01+00:00,212.6664,14.36,12.73,47.84626,-54.09684
2021-09-22 04:19:00+00:00,203.1082,14.38,12.73,47.84626,-54.09684
2021-09-22 04:29:00+00:00,191.7548,14.39,12.73,47.84626,-54.09684
2021-09-22 04:39:00+00:00,185.8365,14.39,12.73,47.84626,-54.09684
2021-09-22 04:49:00+00:00,182.7664,14.39,12.73,47.84626,-54.09684
2021-09-22 04:59:00+00:00,175.3398,14.39,12.73,47.84626,-54.09684
2021-09-22 05:09:00+00:00,169.6748,14.39,12.73,47.84626,-54.09684
2021-09-22 05:19:01+00:00,167.9999,14.38,12.73,47.84626,-54.09684
2021-09-22 05:29:01+00:00,164.1148,14.38,12.73,47.84626,-54.09684
2021-09-22 05:39:01+00:00,160.4982,14.38,12.73,47.84626,-54.09684
2021-09-22 05:49:01+00:00,159.2848,14.37,12.73,47.84626,-54.09684
2021-09-22 05:59:01+00:00,159.5431,14.36,12.73,47.84626,-54.09684
2021-09-22 06:09:01+00:00,157.4382,14.34,12.73,47.84626,-54.09684
2021-09-22 06:19:01+00:00,157.4015,14.3,12.73,47.84626,-54.09684
2021-09-22 06:29:01+00:00,163.8348,14.3,12.73,47.84626,-54.09684
2021-09-22 06:39:01+00:00,166.7582,14.3,12.73,47.84626,-54.09684
2021-09-22 06:49:01+00:00,165.8682,14.3,12.73,47.84626,-54.09684
2021-09-22 06:59:01+00:00,171.2581,14.3,12.73,47.84626,-54.09684
2021-09-22 07:09:01+00:00,180.2865,14.3,12.73,47.84626,-54.09684
2021-09-22 07:19:01+00:00,184.0515,14.3,12.73,47.84626,-54.09684
2021-09-22 07:29:01+00:00,187.9998,14.3,12.73,47.84626,-54.09684
2021-09-22 07:39:01+00:00,195.7665,14.3,12.73,47.84626,-54.09684
2021-09-22 07:49:01+00:00,197.5664,14.3,12.73,47.84626,-54.09684
2021-09-22 07:59:01+00:00,200.4098,14.33,12.73,47.84626,-54.09684
2021-09-22 08:09:01+00:00,212.6431,14.37,12.73,47.84626,-54.09684
2021-09-22 08:19:00+00:00,220.9398,14.39,12.73,47.84626,-54.09684
2021-09-22 08:29:00+00:00,221.5148,14.4,12.73,47.84626,-54.09684
2021-09-22 08:39:00+00:00,227.5181,14.4,12.73,47.84626,-54.09684
2021-09-22 08:49:00+00:00,234.5782,14.4,12.73,47.84626,-54.09684
2021-09-22 08:59:00+00:00,235.658,14.4,12.73,47.84626,-54.09684
2021-09-22 09:09:00+00:00,240.5665,14.4,12.73,47.84626,-54.09684
2021-09-22 09:19:01+00:00,250.7414,14.4,12.65,47.84626,-54.09684
2021-09-22 09:29:01+00:00,254.9899,14.4,12.65,47.84626,-54.09684
2021-09-22 09:39:01+00:00,254.673,14.4,12.65,47.84626,-54.09684
2021-09-22 09:49:01+00:00,259.8947,14.4,12.65,47.84626,-54.09684
2021-09-22 09:59:01+00:00,270.2047,14.4,12.65,47.84626,-54.09684
2021-09-22 10:09:01+00:00,274.8181,14.4,12.65,47.84626,-54.09684
2021-09-22 10:19:01+00:00,277.0247,14.4,13.29,47.84626,-54.09684
2021-09-22 10:29:01+00:00,286.5947,14.4,13.29,47.84626,-54.09684
2021-09-22 10:39:01+00:00,298.6264,14.4,13.29,47.84626,-54.09684
2021-09-22 10:49:01+00:00,304.1014,14.4,13.29,47.84626,-54.09684
2021-09-22 10:59:01+00:00,310.0413,14.4,13.29,47.84626,-54.09684
2021-09-22 11:09:01+00:00,320.6563,14.4,13.29,47.84626,-54.09684
2021-09-22 11:19:01+00:00,328.0630000000001,14.4,14.24,47.84626,-54.09684
2021-09-22 11:29:01+00:00,333.1813,14.4,14.24,47.84626,-54.09684
2021-09-22 11:39:01+00:00,341.048,14.4,14.24,47.84626,-54.09684
2021-09-22 11:49:01+00:00,346.1795,14.4,14.24,47.84626,-54.09684
2021-09-22 11:59:01+00:00,347.793,14.4,14.24,47.84626,-54.09684
2021-09-22 12:09:01+00:00,352.5463,14.4,14.24,47.84626,-54.09684
2021-09-22 12:19:01+00:00,359.3496,14.4,14.48,47.84626,-54.09684
2021-09-22 12:29:01+00:00,359.4495,14.4,14.48,47.84626,-54.09684
2021-09-22 12:39:01+00:00,356.0714,14.4,14.48,47.84626,-54.09684
2021-09-22 12:49:01+00:00,357.3228,14.4,14.48,47.84626,-54.09684
2021-09-22 12:59:01+00:00,357.3262,14.4,14.48,47.84626,-54.09684
2021-09-22 13:09:01+00:00,354.5696,14.4,14.48,47.84626,-54.09684
2021-09-22 13:19:01+00:00,351.9514,14.45,14.32,47.84626,-54.09684
2021-09-22 13:29:01+00:00,351.4696,14.49,14.32,47.84626,-54.09684
2021-09-22 13:39:01+00:00,348.8513,14.49,14.32,47.84626,-54.09684
2021-09-22 13:49:01+00:00,344.7379,14.49,14.32,47.84626,-54.09684
2021-09-22 13:59:01+00:00,342.5696,14.49,14.32,47.84626,-54.09684
2021-09-22 14:09:01+00:00,337.8279,14.48,14.32,47.84626,-54.09684
2021-09-22 14:19:01+00:00,333.1496,14.49,14.24,47.84626,-54.09684
2021-09-22 14:29:01+00:00,331.0714,14.49,14.24,47.84626,-54.09684
2021-09-22 14:39:01+00:00,324.5596,14.49,14.24,47.84626,-54.09684
2021-09-22 14:49:01+00:00,317.5029,14.5,14.24,47.84626,-54.09684
2021-09-22 14:59:01+00:00,313.0714,14.5,14.24,47.84626,-54.09684
2021-09-22 15:09:01+00:00,305.1063,14.5,14.24,47.84626,-54.09684
2021-09-22 15:19:01+00:00,293.7413,14.5,14.32,47.84626,-54.09684
2021-09-22 15:29:01+00:00,287.4563,14.5,14.32,47.84626,-54.09684
2021-09-22 15:39:01+00:00,281.1197,14.5,14.32,47.84626,-54.09684
2021-09-22 15:49:01+00:00,268.9447,14.5,14.32,47.84626,-54.09684
2021-09-22 15:59:01+00:00,256.8714,14.5,14.32,47.84626,-54.09684
2021-09-22 16:09:01+00:00,251.4431,14.5,14.32,47.84626,-54.09684
2021-09-22 16:19:01+00:00,243.6281,14.5,14.16,47.84626,-54.09684
2021-09-22 16:29:01+00:00,231.9231,14.5,14.16,47.84626,-54.09684
2021-09-22 16:39:01+00:00,220.8414,14.5,14.16,47.84626,-54.09684
2021-09-22 16:49:01+00:00,212.6598,14.5,14.16,47.84626,-54.09684
2021-09-22 16:59:01+00:00,206.2431,14.5,14.16,47.84626,-54.09684
2021-09-22 17:09:01+00:00,198.1331,14.5,14.16,47.84626,-54.09684
2021-09-22 17:19:01+00:00,189.0448,14.5,14.08,47.84626,-54.09684
2021-09-22 17:29:01+00:00,183.9532,14.49,14.08,47.84626,-54.09684
2021-09-22 17:39:01+00:00,180.1165,14.43,14.08,47.84626,-54.09684
2021-09-22 17:49:01+00:00,173.3115,14.4,14.08,47.84626,-54.09684
2021-09-22 17:59:01+00:00,166.5515,14.4,14.08,47.84626,-54.09684
2021-09-22 18:09:01+00:00,164.8765,14.4,14.08,47.84626,-54.09684
2021-09-22 18:19:01+00:00,164.4865,14.4,13.92,47.84626,-54.09684
2021-09-22 18:29:01+00:00,161.6082,14.4,13.92,47.84626,-54.09684
2021-09-22 18:39:01+00:00,160.3898,14.4,13.92,47.84626,-54.09684
2021-09-22 18:49:01+00:00,160.4332,14.4,13.92,47.84626,-54.09684
2021-09-22 18:59:01+00:00,162.6481,14.4,13.92,47.84626,-54.09684
2021-09-22 19:09:01+00:00,168.6848,14.4,13.92,47.84626,-54.09684
2021-09-22 19:19:01+00:00,171.9998,14.4,13.6,47.84626,-54.09684
2021-09-22 19:29:01+00:00,174.5381,14.4,13.6,47.84626,-54.09684
2021-09-22 19:39:01+00:00,182.6398,14.4,13.6,47.84626,-54.09684
2021-09-22 19:49:01+00:00,189.5781,14.41,13.6,47.84626,-54.09684
2021-09-22 19:59:01+00:00,193.0665,14.44,13.6,47.84626,-54.09684
2021-09-22 20:09:01+00:00,201.1797,14.46,13.6,47.84626,-54.09684
2021-09-22 20:19:01+00:00,210.3431,14.46,13.53,47.84626,-54.09684
2021-09-22 20:29:01+00:00,213.1397,14.49,13.53,47.84626,-54.09684
2021-09-22 20:39:01+00:00,215.9248,14.5,13.53,47.84626,-54.09684
2021-09-22 20:49:01+00:00,223.5981,14.5,13.53,47.84626,-54.09684
2021-09-22 20:59:01+00:00,230.2164,14.5,13.53,47.84626,-54.09684
2021-09-22 21:09:01+00:00,233.8497,14.5,13.53,47.84626,-54.09684
2021-09-22 21:19:01+00:00,240.8615,14.5,13.21,47.84626,-54.09684
2021-09-22 21:29:01+00:00,247.8164,14.53,13.21,47.84626,-54.09684
2021-09-22 21:39:01+00:00,251.2798,14.58,13.21,47.84626,-54.09684
2021-09-22 21:49:01+00:00,255.2514,14.6,13.21,47.84626,-54.09684
2021-09-22 21:59:01+00:00,264.1814,14.6,13.21,47.84626,-54.09684
2021-09-22 22:09:01+00:00,270.533,14.6,13.21,47.84626,-54.09684
2021-09-22 22:19:01+00:00,273.8964,14.6,12.89,47.84626,-54.09684
2021-09-22 22:29:01+00:00,280.9247,14.6,12.89,47.84626,-54.09684
2021-09-22 22:39:01+00:00,291.4347,14.6,12.89,47.84626,-54.09684
2021-09-22 22:49:01+00:00,298.2164,14.6,12.89,47.84626,-54.09684
2021-09-22 22:59:01+00:00,306.5197,14.6,12.89,47.84626,-54.09684
2021-09-22 23:09:01+00:00,317.738,14.6,12.89,47.84626,-54.09684
2021-09-22 23:19:01+00:00,324.7929,14.6,12.73,47.84626,-54.09684
2021-09-22 23:29:01+00:00,327.93300000000005,14.6,12.73,47.84626,-54.09684
2021-09-22 23:39:01+00:00,336.1930000000001,14.6,12.73,47.84626,-54.09684
2021-09-22 23:49:01+00:00,345.05300000000005,14.6,12.73,47.84626,-54.09684
2021-09-22 23:59:01+00:00,348.588,14.6,12.73,47.84626,-54.09684
